Погода Грозный

Погода Грозный : погода сейчас, прогноз погоды и архив. Всё, что Вы хотите узнать о погоде Грозный!

Поиск расширенной информации на нашем сайте:

Другие новости

Новости СМИ2

Главная страница сайта

Новости сайта

03.07.2017

Напоминаем, что на нашем специализированном сайте Метеоцентр.Азия вы можете получить высокодетализированные автоматические прогнозы погоды по пунктам России, СНГ и мира в авиационном формате (включающие направление и скорость ветра, видимость, явления погоды, количество и форму облачности, нижнюю и верхнюю границу облачности).


Погода Грозный - сегодня

Время (UTC), дата Ветер
(°,м/с) 
Видим.   Явления Облачность Т
(°С)
Тd
(°С)
f(%) Тe
(°С)
Pmin
(гПа)
dP
(гПа)
Po
(мм)
O2
(г/м3)
Тmin Tmax R s Состояние
почвы
09 16.08.18 130 (ЮВ) 20000 м    ясно 
+28.3 +16.1 48 +39  1012  -1  737  266           
12 16.08.18 080 (В) 20000 м    ясно 
+29.5 +16.6 46 +42  1011.1  -0.9  737  264           
15 16.08.18 090 (В) 20000 м    ясно 
+26.7 +15.6 51 +37  1011.4  0.1  737  267    +30       
18 16.08.18 100 (В) 10 км    ясно 
+21.8 +16.2 70 +33  1012.5  -0.7  737  272           
21 16.08.18 тихо ()   10 км    ясно 
+18.9 +17.6 92 +33  1012.4  -0.4  737  274           
00 17.08.18 тихо ()   10 км    ясно 
+16.3 +15.4 94 +26  1011.7  -0.6  736  277           
03 17.08.18 240 (ЮЗ) 20000 м    ясно 
+15.9 +15.2 96 +27  1012.1  0.4  737  277  +15.5        сухая 
06 17.08.18 240 (ЮЗ) 20000 м    8/4 1000 м средняя 
[Sc|Ac As]
+22.4 +18.8 80 +39  1012  0.1  737  270           
09 17.08.18 240 (ЮЗ) 20000 м    4/0 средняя 
[Ac lent]
+27.9 +19.1 59 +45  1010.4  -1  736  265           
12 17.08.18 170 (Ю) 20000 м    5/5 1000 м средняя 
[Sc|Ac lent]
+30 +19.3 53 +48  1009.4  -0.9  735  262           
15 17.08.18 140 (ЮВ) 20000 м    8/0 средняя 
[Ac lent]
+28.3 +20.3 62 +48  1009.5  735  264    +30.3       
18 17.08.18 090 (В) 10 км    9/3 600 м средняя 
[Sc|Ac As]
+23.7 +19.8 79 +43  1010.5  0.6  736  268           
21 17.08.18 110 (В) 10 км    9/3 600 м средняя 
[Sc|Ac As]
+23.5 +18.1 72 +39  1009.7  -0.8  735  269           
00 18.08.18 тихо ()   10 км    9/9 600 м 
[Sc]
+21.3 +18.8 86 +38  1009.2  -0.5  735  270           
03 18.08.18 180 (Ю) 20000 м    10/10 1000 м 
[Sc]
+21.6 +19.6 88 +40  1009.8  0.7  735  270  +21        сухая 
06 18.08.18 тихо ()   20000 м    10/10 600 м 
[Frnb]
+24.6 +18.6 69 +41  1009.9  735  267           
09 18.08.18 110 (В) 20000 м    5/0 средняя 
[Ac lent]
+29.3 +13.9 39 +37  1008.9  -0.5  735  265           
12 18.08.18 210 (ЮЗ) 20000 м    10/10 1000 м 
[Sc]
+30.3 +14.6 38 +39  1009  735  264           
15 18.08.18 230 (ЮЗ) 20000 м    10/10 600 м 
[Frnb]
+23.5 +18.4 73 +39  1010.8  0.2  736  269    +30.5       
18 18.08.18 240 (ЮЗ) 10 км    10/10 600 м 
[Frnb]
+20.9 +16.8 77 +33  1011.6  0.7  736  272           
21 18.08.18 260 (З) 10 км    10/10 600 м 
[Sc]
+20.2 +16.6 80 +32  1011.5  -0.1  736  273           
00 19.08.18 210 (ЮЗ) 10 км    5/0 средняя 
[Ac lent]
+18.7 +16 84 +31  1011.2  -0.1  736  274           
03 19.08.18 090 (В) 20000 м    4/0 средняя 
[Ac lent]
+16.2 +13.9 86 +25  1012.4  0.7  737  277  +16        сухая 
06 19.08.18 290 (З) 20000 м    ясно 
+24.5 +16.4 61 +36  1013.1  1.1  738  269           
09 19.08.18 240 (ЮЗ) 20000 м    ясно 
+26.3 +15 50 +35  1012.9  0.1  738  268           
Время (UTC), дата Ветер
(°,м/с) 
Видим.   Явления Облачность Т
(°С)
Тd
(°С)
f(%) Тe
(°С)
Pmin
(гПа)
dP
(гПа)
Po
(мм)
O2
(г/м3)
Тmin Tmax R s Состояние
почвы

Для получения пояснительной информации подведите курсор к названию столбца.

ПОГОДА Грозный - архив

Всё, что Вы хотите узнать о погоде Грозный - удобно и подробно!

Выберите нужную дату (начиная с 1 января 2015* года) и нажмите кнопку "Найти".
Будут отображены архивные сводки погоды по пункту Грозный, начиная с указанной даты.


Отображать данные в формате CSV (для использования в таблицах Excel)


Внимание! Наш архив погоды предназначен исключительно для личного некоммерческого использования в познавательных целях. Если Вам необходимы официальные справки о состоянии погоды (для производственных, юридических, коммерческих и т.п. целей), обращайтесь в органы Росгидромета.

*Примечание: данная дата относится к архиву по метеостанциям СССР (Россия, СНГ, Балтия).
Архив по метеостанциям Зарубежной Европы и Азии (кроме Китая) хранится 10 дней, по другим регионам земного шара (Китай, Африка, Америка, Австралия, Океания) - 1 день.

Грозный - район местоположения метеостанции


Название, широта, долгота, высота метеостанции:
Грозный 43.3°ш. 45.7°д. 163 м над ур. моря [Российская Федерация]

Дополнительная информация

В oтличие oт бoльшинства пoгoдных сайтoв мы публикуем пoдрoбную метеoинфoрмацию в детальнoм прoфессиoнальнoм фoрмате.

Характеристики температуры и влажнoсти вoздуха измеряются на высoте 2 м в тени вдали oт зданий и деревьев.
Скoрoсть ветра измеряется на высoте 10 м (на урoвне рoста челoвека скoрoсть ветра ниже в 1.5-2 раза). Если метеoстанция нахoдится в гoрoде или в лесу, тo скoрoсть ветра занижена на 2-4 м/с пo сравнению с oткрытым местoм. Скoрoсть ветра над акватoриями крупных рек и oзёр, а также на вершинах хoлмoв на 2-5 м/с выше, чем в oбычных услoвиях.
Атмoсфернoе давление в разных тoчках местнoсти мoжет значительнo oтличаться oт давления на метеoстанции, в зависимoсти oт услoвий рельефа (при пoдъёме на 10 м давление пoнижается примернo на 1 мм рт.ст.).